User: anonymous   Login
Location: Bergen
(60.3910°N, 5.3250°E)
Time: 04:53:48
(UTC+02:00)
Language:

Cosmos 1943 - Orbit

View from above orbital plane
View from above orbital plane
View from above satellite
View from above satellite

Ground track
Ground track

The orbit data is extracted from the following two-line orbital elements,

1 19119U 88039A   17207.06072939 +.00000008 +00000-0 +28613-4 0  9994
2 19119 071.0028 020.1475 0011723 348.7054 150.7365 14.15091477507328
Epoch (UTC): 26 July 2017 01:27:27
Eccentricity: 0.0011723
inclination: 71.0028°
perigee height: 833 km
apogee height: 850 km
right ascension of ascending node: 20.1475°
argument of perigee: 348.7054°
revolutions per day: 14.15091477
mean anomaly at epoch: 150.7365°
orbit number at epoch: 50732

The dashed part of the orbit path shows where the satellite is in the earth's shadow,  

DLR